Погода в Старой Пристани

Россия / Республика Татарстан     55°23′37″N   49°29′49″E
темп.,
°C
ветер,
м/с
пор.,
м/с
влажн.,
%
обл.,
%
осадки,
мм/ч
давл.,
гПа
погр.,
м
8 августа, пн
пн800:00+20св1156100 0.0 102011
03:00+20св125891 0.0 102014
06:00+21з1165100 0.0 102011
09:00+23с016489 0.0 102071
12:00+27ссв224635 0.0 1021961
15:00+28с124322 0.0 10201565
18:00+26с225699 0.0 101931
21:00+22всв2259100 0.0 102012
9 августа, вт
вт900:00+20ссв227042 0.0 102012
03:00+19с117260 0.1 102011
06:00+21с126759 0.0 102055
09:00+26ссз2251100 0.0 1020472
12:00+29с124266 0.0 10191582
15:00+28ююв214694 0.0 10191201
18:00+23с2360100 0.0 101942
21:00+23юз115771 0.0 101811
10 августа, ср
ср1000:00+20сз11665 0.0 101911
03:00+19ююз22715 0.0 101811
06:00+20ссз227099 0.0 101869
09:00+25з225620 0.0 1019570
12:00+27юз234919 0.1 10181228
15:00+28зюз244899 0.8 10171629
18:00+21с458378 1.3 1017185
21:00+19ссз2289100 2.2 101736
11 августа, чт
чт1100:00+18ссв2290100 0.3 101824
03:00+18з239028 0.3 101771
06:00+16сз699365 0.0 1019488
09:00+18ссз79630 0.0 1020774
12:00+22ссз810430 0.0 10211575
15:00+22ссз9114542 0.0 10211914
18:00+19ссв47585 0.0 1022344
21:00+14ююз11720 0.0 102315
12 августа, пт
пт1200:00+14з2271100 0.0 102327
03:00+15з3663100 0.0 1023124
06:00+16зсз3870100 0.0 1023206
09:00+21зсз585147 0.0 1022719
12:00+24зсз784524 0.0 10211792
15:00+24зсз79445 0.0 10202080
18:00+22з510570 0.0 1019381
21:00+17з410730 0.0 1019178